Lapse_Rate
5.8 5.6 5.5 5.9 5.7 5.8 5.6 5.4 5.7 6.0 5.6 5.4 5.5 5.4 5.5 5.7 5.7 6.0 6.0 5.8 5.8 5.7 5.7 5.7 5.7 5.7 5.6
5.4 5.0 5.8 5.6 5.6 5.7 5.5 5.6 5.6 5.8 5.7 5.7 5.5 5.6 5.7 5.7 6.0 6.0 5.8 5.8 5.8 5.7 5.7 5.6 5.7 5.6 5.7
5.6 5.4 5.8 5.9 5.9 5.6 5.5 5.9 5.9 5.8 5.7 5.8 5.9 5.9 5.9 6.2 6.2 6.0 6.1 5.9 5.9 5.7 5.7 5.6 5.6 5.8 5.8
5.9 5.7 5.8 5.8 6.0 6.0 5.8 5.7 5.8 5.6 5.7 5.9 6.0 6.2 6.1 6.1 6.1 6.0 5.9 5.8 5.8 5.7 5.7 5.8 5.8 5.8 5.9
5.9 6.0 6.0 6.0 5.9 5.9 5.9 5.9 6.0 5.8 5.7 6.0 6.0 6.0 6.2 6.2 6.0 5.9 5.8 5.7 5.8 5.8 5.8 6.0 6.1 6.0 6.2
6.0 5.9 6.0 6.0 5.8 5.8 5.9 6.0 6.1 6.0 6.1 5.9 5.9 6.0 6.1 6.1 6.0 5.8 5.7 5.7 5.8 5.9 6.0 6.2 6.2 6.2 5.9
6.3 5.8 5.8 5.7 5.8 6.0 6.2 6.0 5.8 5.9 5.9 5.9 6.1 6.0 5.9 6.0 5.8 5.6 5.7 5.8 5.9 6.1 6.3 6.2 6.0 5.7 5.3
5.9 5.9 5.8 6.0 6.0 6.2 6.2 6.4 6.2 6.2 6.1 6.1 6.0 5.8 5.8 5.6 5.5 5.6 5.8 5.9 6.0 6.2 6.0 5.8 5.5 5.4 5.2
6.0 5.9 6.0 6.0 6.2 6.2 6.3 6.3 6.3 6.3 6.2 5.9 5.8 5.7 5.6 5.6 5.8 5.9 5.9 6.1 6.1 5.9 5.5 5.4 5.5 5.4 5.0
5.9 5.9 6.0 6.1 6.3 6.5 6.5 6.4 6.4 6.2 6.1 5.9 5.6 5.6 5.7 5.9 6.0 6.0 6.0 6.0 5.7 5.6 5.5 5.4 5.4 5.2 5.0
5.7 5.9 6.2 6.6 6.5 6.4 6.2 6.2 6.2 6.1 5.8 5.7 5.8 5.8 5.9 6.1 6.0 6.1 5.9 5.6 5.5 5.5 5.2 4.8 4.8 4.9 5.0
5.9 5.8 5.9 6.2 6.3 6.2 6.2 6.0 5.8 5.8 5.8 5.9 6.0 6.1 6.1 6.0 6.0 5.9 5.3 5.4 5.3 5.1 4.7 4.5 4.8 4.8 4.7
5.9 6.0 6.1 6.1 6.0 5.9 5.6 5.6 5.7 5.9 6.0 6.1 6.2 6.2 6.1 5.9 5.7 5.6 5.3 4.9 4.8 5.0 4.9 4.7 4.9 5.0 5.0
5.8 5.9 5.9 5.8 5.7 5.6 5.6 5.8 5.9 6.0 6.1 6.2 6.3 6.1 6.1 6.0 5.9 5.6 5.5 5.4 5.1 5.1 5.0 4.6 4.5 4.8 4.7
5.9 5.9 5.7 5.5 5.6 5.7 5.8 5.9 6.1 6.3 6.3 6.3 6.2 6.0 5.9 5.7 5.7 5.6 5.3 5.1 4.8 4.8 4.7 4.8 4.5 4.6 4.5
5.8 5.5 5.5 5.7 5.8 5.9 6.0 6.3 6.5 6.4 6.3 6.2 6.0 5.9 5.8 5.7 5.7 5.6 5.1 4.9 4.7 4.6 4.6 4.7 4.6 4.4 4.4
5.4 5.6 5.7 5.9 6.0 6.2 6.4 6.5 6.4 6.3 6.1 6.0 5.9 5.7 5.5 5.1 4.9 5.1 5.0 4.8 4.7 4.6 4.6 4.5 4.5 4.5 4.8
Wind_Speed
1 1 3 6 7 11 15 14 14 14 12 9 7 5 5 8 7 6 5 7 7 8 10 11 13 14 15
2 1 2 5 4 6 8 9 13 12 10 8 6 4 5 7 7 6 5 6 6 8 11 12 14 15 17
3 2 2 2 4 4 5 6 7 8 9 8 6 4 4 5 6 5 4 4 6 9 11 12 14 17 19
3 3 2 2 3 4 4 2 3 5 6 5 4 2 3 5 2 1 2 5 7 8 10 13 15 18 19
3 2 2 4 6 3 3 3 2 2 2 2 2 1 1 2 1 1 4 6 5 8 10 14 16 18 20
3 4 4 5 4 7 5 3 3 2 2 2 1 1 2 2 2 4 5 3 7 9 12 15 18 18 19
8 5 6 9 10 7 5 3 2 2 2 2 0 1 2 2 4 3 0 4 7 11 13 16 17 19 21
6 7 6 10 9 5 6 7 5 4 1 2 1 1 1 4 3 5 2 4 10 12 14 13 18 22 22
17 16 21 21 16 9 6 7 2 1 2 2 0 1 1 1 1 2 4 5 12 12 11 16 20 22 18
11 13 17 17 13 6 8 4 3 2 1 2 1 2 2 1 1 3 4 9 12 10 12 21 19 14 14
10 8 8 8 6 11 10 5 3 2 2 3 1 1 1 2 2 2 3 11 9 11 13 18 20 17 6
9 7 7 7 6 11 14 14 14 9 8 5 3 2 1 2 2 3 4 12 8 5 12 19 19 18 16
8 7 5 6 10 9 15 17 16 13 11 9 4 2 2 2 2 2 3 2 7 5 8 11 11 14 9
8 7 4 4 5 4 4 4 4 3 9 7 5 2 1 2 2 3 2 2 3 6 8 10 12 11 11
8 7 7 6 5 3 2 2 3 2 2 3 10 4 6 4 2 3 2 2 3 7 7 7 5 10 11
6 6 6 6 5 4 4 4 4 1 2 2 3 3 3 1 6 2 2 2 5 5 6 4 7 7 13
6 6 6 6 7 5 5 3 2 2 2 2 2 3 3 2 3 4 1 3 3 6 3 3 6 11 14
Wind_Direction
88 102 119 138 140 134 149 149 157 167 177 174 187 188 208 218 219 241 274 288 292 300 305 309 308 308 308
144 119 94 154 132 124 127 141 149 163 169 179 188 198 227 228 226 251 272 281 289 301 305 308 308 304 305
141 114 97 121 99 87 119 108 132 164 184 180 190 200 222 217 240 263 287 296 294 299 305 308 307 307 308
109 118 125 103 109 138 130 118 120 138 130 136 145 166 208 231 208 75 297 290 298 303 314 312 310 308 308
122 131 136 152 168 148 119 120 83 149 148 130 148 179 213 154 178 274 287 296 309 315 316 315 312 311 308
145 160 156 146 139 151 134 145 172 167 139 125 175 191 190 225 259 282 296 302 314 318 321 315 312 311 312
163 166 158 172 147 143 137 123 104 108 108 167 38 256 240 232 303 277 256 327 332 329 323 317 313 313 313
145 137 124 142 144 138 124 101 89 76 75 136 23 254 307 313 259 165 34 6 345 333 327 322 318 316 312
109 121 134 131 125 119 126 133 109 115 34 110 107 319 348 310 232 192 339 331 337 338 331 326 322 317 312
85 84 94 111 115 100 141 127 121 65 269 99 85 32 1 1 292 265 312 337 341 327 321 326 325 319 315
94 86 78 73 68 74 85 113 114 93 159 102 93 41 95 294 291 278 327 327 326 307 311 322 326 327 309
103 94 92 84 76 79 80 77 75 102 99 113 132 131 118 344 303 336 313 304 301 282 313 318 319 317 312
104 97 91 105 100 89 83 83 78 80 80 79 97 134 137 175 269 294 319 297 307 297 313 309 305 306 309
108 107 94 92 91 91 97 93 85 54 57 58 51 120 150 211 172 282 241 293 305 318 312 300 294 285 287
114 114 106 101 93 81 71 65 84 76 354 341 352 331 213 169 223 224 266 269 270 316 323 318 299 298 298
109 110 111 109 105 91 84 88 99 75 34 355 348 5 4 275 216 274 292 270 304 310 318 314 304 315 312
111 114 117 117 116 101 94 99 78 64 29 20 36 73 50 344 297 309 230 301 302 318 285 261 280 298 310